[[{"header":{"parameterUnit":"m.s-1","parameterCategory":1,"la1":30.2991,"la2":30.254,"lo1":-89.0895,"lo2":-89.0444,"dy":0.0017,"dx":0.0017,"nx":28,"ny":28,"refTime":"2025-04-08T09:00:00:Z","depth":0,"parameterNumber":2,"parameterNumberName":"U-component_of_WINDS"},"data":[0,0,0,0,0,0,0,0,0,0,0,0,0,0,0,0,0,0,0,0,0,0,0,0,0,0,0,0,0,0,0,0,0,0,0,0,0,0,0,0,0,0,0,0,0,0,0,0,0,0,0,0,0,0,0,0,0,0,2.4031,2.4031,0,2.405,2.405,2.4051,2.4035,2.4034,2.4034,2.4033,2.4051,2.4052,2.4054,0,0,0,0,0,0,0,0,0,0,0,0,0,2.3979,2.398,2.4031,2.4031,2.4031,2.405,2.405,2.4051,2.4035,2.4034,2.4033,2.4033,2.4051,2.4052,2.4054,0,0,0,0,0,0,0,0,0,0,0,0,0,2.4,2.3981,2.403,2.4026,2.4025,2.405,2.405,2.4051,2.4035,2.4034,2.4033,2.4032,2.4051,2.4052,2.4054,2.4084,0,0,2.4059,2.406,0,0,0,0,0,0,0,0,2.3999,2.4002,2.4026,2.4026,2.4026,2.4039,2.4039,2.4062,2.4036,2.4031,2.4033,2.4032,2.4048,2.405,2.4056,2.4085,2.4085,2.4059,2.406,2.4061,2.4061,0,0,0,0,0,0,0,2.3998,2.4001,2.4038,2.4026,2.4026,2.4022,2.4024,2.4043,2.4045,2.4032,2.4031,2.4033,2.4048,2.4054,2.4056,2.4086,2.4059,2.406,2.4061,2.4062,2.4141,2.4142,0,0,0,0,0,0,2.3997,2.4,2.4038,2.4039,2.401,2.4024,2.4026,2.4036,2.4045,2.4045,2.4034,2.4033,2.4052,2.4054,2.4056,2.4092,2.4061,2.4062,2.4063,2.414,2.4142,2.4143,0,0,0,0,0,0,2.3996,2.4,2.4037,2.4019,2.4024,2.4026,2.4037,2.4037,2.4043,2.4047,2.4047,2.404,2.4051,2.4054,2.4077,2.4093,2.4063,2.4064,2.4139,2.4141,2.4142,2.4164,0,0,0,0,0,0,2.3994,2.4,2.4011,2.402,2.4025,2.4057,2.4038,2.4038,2.4046,2.4044,2.4052,2.4053,2.405,2.4075,2.4079,2.4094,2.4066,2.4137,2.414,2.4142,2.4162,2.4166,2.417,0,0,0,0,0,2.3993,2.4016,2.4012,2.4017,2.4039,2.4058,2.4061,2.4059,2.4047,2.4059,2.4061,2.4052,2.4091,2.4078,2.4082,2.4098,2.4136,2.4139,2.4141,2.416,2.4165,2.417,0,0,0,0,0,0,2.4008,2.4017,2.4012,2.4039,2.4048,2.4056,2.407,2.4064,2.4076,2.4073,2.4069,2.4071,2.4096,2.41,2.4085,2.4128,2.4112,2.4115,2.4124,2.4129,2.4133,2.4131,2.4067,0,0,0,0,0,2.4015,2.4031,2.4037,2.406,2.4065,2.4067,2.4075,2.4073,2.4082,2.4085,2.4089,2.4098,2.4112,2.4121,2.4134,2.4163,2.4164,2.4176,2.418,2.4184,2.4186,2.4202,2.4207,2.4151,2.4151,2.4151,0,0,2.4028,2.4035,2.4045,2.4064,2.407,2.4086,2.407,2.4087,2.4099,2.4088,2.411,2.4114,2.4123,2.4149,2.4161,2.4153,2.4202,2.4187,2.4189,2.419,2.4205,2.421,2.4215,2.4153,2.4152,2.4152,0,0,2.4061,2.4068,2.4088,2.4096,2.4107,2.4108,2.4113,2.4122,2.4124,2.4147,2.4139,2.4153,2.4177,2.4185,2.4191,2.423,2.4222,2.4234,2.4254,2.427,2.4274,2.4278,2.4291,2.4296,2.4237,2.4237,2.4237,0,2.4076,2.41,2.4099,2.4118,2.4126,2.4118,2.4139,2.4146,2.416,2.4166,2.4158,2.4189,2.4194,2.4222,2.4232,2.4238,2.4243,2.4232,2.4274,2.4278,2.4281,2.4294,2.4299,2.4239,2.4239,2.4238,2.4238,0,2.4118,2.4135,2.415,2.4166,2.4176,2.4195,2.4197,2.4208,2.4206,2.4208,2.4232,2.4239,2.4254,2.426,2.4258,2.4288,2.4283,2.4274,2.4258,2.4288,2.4299,2.4304,2.4241,2.424,2.424,2.4239,0,0,2.4158,2.4175,2.418,2.4187,2.42,2.4213,2.4233,2.4248,2.4257,2.4268,2.4284,2.4306,2.4299,2.4307,2.4305,2.4319,2.4348,2.4308,2.4308,2.4315,2.4382,2.4388,2.4393,2.4344,2.4345,2.4346,2.4381,0,2.4191,2.4225,2.4226,2.4257,2.4273,2.4267,2.4284,2.4294,2.4297,2.4311,2.4315,2.433,2.432,2.4324,2.4338,2.4342,2.4362,2.434,2.4358,2.4359,2.4354,2.44,2.4405,2.4438,2.4386,2.4387,2.4387,0,2.4233,2.4246,2.4279,2.4291,2.4298,2.4313,2.4328,2.4342,2.4353,2.4355,2.4365,2.4362,2.4382,2.4366,2.4394,2.4379,2.4387,2.439,2.4391,2.4391,2.4374,2.44,2.4448,2.4453,2.4395,2.4394,2.4393,0,2.4258,2.4284,2.4308,2.4314,2.4329,2.434,2.4346,2.4357,2.4367,2.438,2.4386,2.4401,2.4409,2.4421,2.4422,2.4411,2.445,2.4434,2.4451,2.4451,2.4458,2.4457,2.4507,2.4466,2.4465,2.4465,2.4465,0,2.4293,2.4313,2.4319,2.4333,2.4356,2.4358,2.438,2.4386,2.4396,2.4411,2.4408,2.4422,2.4423,2.4438,2.4439,2.4462,2.4465,2.4467,2.4467,2.4466,2.4466,2.447,2.4467,2.4467,2.4466,2.4466,2.4466,0,2.4323,2.4329,2.4354,2.4366,2.437,2.4386,2.4397,2.4411,2.4415,2.4434,2.4439,2.4445,2.4463,2.4466,2.4486,2.4487,2.4513,2.4512,2.451,2.4509,2.4525,2.4523,2.4578,2.4585,2.454,2.4541,2.4541,0,2.4345,2.436,2.4375,2.4386,2.4393,2.441,2.442,2.4423,2.4434,2.4449,2.4461,2.4479,2.4492,2.4521,2.4527,2.4542,2.454,2.4559,2.4542,2.4542,2.4539,2.4537,2.4539,2.4561,2.4561,2.4562,2.4562,0,2.4382,2.4384,2.4399,2.4417,2.4429,2.4443,2.4455,2.4464,2.4468,2.4481,2.4499,2.451,2.4532,2.4549,2.4565,2.4572,2.4567,2.4568,2.4572,2.4571,2.4569,2.4569,2.4517,2.4566,2.4565,2.4565,2.4565,2.4565,2.4407,2.4421,2.4435,2.4452,2.4463,2.4475,2.4489,2.4496,2.4511,2.453,2.4531,2.4551,2.4563,2.4584,2.4592,2.4608,2.4602,2.4608,2.461,2.4611,2.4612,2.4568,2.4611,2.4611,2.461,2.461,2.461,0,2.4443,2.4452,2.4469,2.4487,2.4502,2.4499,2.4513,2.4525,2.4543,2.4555,2.4569,2.4591,2.4608,2.4617,2.4633,2.4644,2.4643,2.4649,2.4647,2.4648,2.4617,2.4611,2.4649,2.4649,2.4649,2.4649,2.4649,2.4649,2.4464,2.4487,2.4492,2.4521,2.4529,2.455,2.4558,2.457,2.458,2.4604,2.4619,2.4625,2.4636,2.4654,2.4669,2.4672,2.4677,2.4684,2.4685,2.4655,2.4651,2.4647,2.4641,2.4685,2.4685,2.4715,2.4715,2.4715]},{"header":{"parameterUnit":"m.s-1","parameterCategory":1,"la1":30.2991,"la2":30.254,"lo1":-89.0895,"lo2":-89.0444,"dy":0.0017,"dx":0.0017,"nx":28,"ny":28,"refTime":"2025-04-08T09:00:00:Z","depth":0,"parameterNumber":3,"parameterNumberName":"V-component_of_WINDS"},"data":[0,0,0,0,0,0,0,0,0,0,0,0,0,0,0,0,0,0,0,0,0,0,0,0,0,0,0,0,0,0,0,0,0,0,0,0,0,0,0,0,0,0,0,0,0,0,0,0,0,0,0,0,0,0,0,0,0,0,-4.0511,-4.0513,0,-4.0672,-4.0674,-4.0676,-4.0593,-4.0588,-4.0584,-4.058,-4.0746,-4.0754,-4.0762,0,0,0,0,0,0,0,0,0,0,0,0,0,-4.0133,-4.0141,-4.0511,-4.0513,-4.0515,-4.0672,-4.0674,-4.0676,-4.0593,-4.0588,-4.0583,-4.0578,-4.0743,-4.0753,-4.0763,0,0,0,0,0,0,0,0,0,0,0,0,0,-4.0296,-4.0143,-4.0511,-4.0493,-4.0493,-4.0671,-4.0674,-4.0677,-4.0595,-4.0588,-4.0582,-4.0576,-4.074,-4.0752,-4.0764,-4.097,0,0,-4.0803,-4.0808,0,0,0,0,0,0,0,0,-4.0287,-4.031,-4.0493,-4.0494,-4.0495,-4.0606,-4.0601,-4.0775,-4.0596,-4.0556,-4.058,-4.0573,-4.0704,-4.0719,-4.0764,-4.0978,-4.0985,-4.0804,-4.0811,-4.0817,-4.082,0,0,0,0,0,0,0,-4.0276,-4.0303,-4.0575,-4.0496,-4.0497,-4.0477,-4.0493,-4.0634,-4.0664,-4.0559,-4.0553,-4.0573,-4.0703,-4.0752,-4.0767,-4.0987,-4.0803,-4.0815,-4.0822,-4.0827,-4.1379,-4.1386,0,0,0,0,0,0,-4.0265,-4.0294,-4.057,-4.058,-4.0373,-4.0489,-4.0507,-4.0577,-4.0662,-4.0669,-4.0579,-4.0569,-4.0733,-4.0752,-4.0772,-4.102,-4.0817,-4.0828,-4.0836,-4.1372,-4.138,-4.1388,0,0,0,0,0,0,-4.0258,-4.0291,-4.0563,-4.0435,-4.0468,-4.0502,-4.0581,-4.0583,-4.0631,-4.0677,-4.0682,-4.0623,-4.0729,-4.0755,-4.0922,-4.1024,-4.0834,-4.0846,-4.1363,-4.1374,-4.1384,-4.1515,0,0,0,0,0,0,-4.0247,-4.0288,-4.0367,-4.0438,-4.0476,-4.071,-4.0588,-4.0591,-4.0653,-4.0642,-4.072,-4.0726,-4.0726,-4.0903,-4.0934,-4.1038,-4.0855,-4.1354,-4.1368,-4.1381,-4.1502,-4.1529,-4.1552,0,0,0,0,0,-4.0234,-4.0397,-4.0371,-4.0405,-4.0574,-4.0716,-4.0738,-4.0734,-4.0662,-4.0741,-4.0771,-4.0724,-4.1008,-4.0921,-4.0955,-4.1064,-4.1348,-4.1364,-4.138,-4.1491,-4.1524,-4.1552,0,0,0,0,0,0,-4.0338,-4.0406,-4.0378,-4.0569,-4.0638,-4.0702,-4.0802,-4.0769,-4.0859,-4.0845,-4.0836,-4.0854,-4.1028,-4.1062,-4.0965,-4.1268,-4.1167,-4.119,-4.1239,-4.1271,-4.1296,-4.1284,-4.0866,0,0,0,0,0,-4.0383,-4.0492,-4.0546,-4.071,-4.0745,-4.0768,-4.0829,-4.082,-4.0891,-4.0919,-4.0961,-4.1031,-4.1136,-4.1205,-4.1304,-4.1506,-4.1523,-4.1598,-4.1623,-4.1644,-4.1665,-4.1775,-4.1809,-4.1441,-4.1441,-4.144,0,0,-4.0478,-4.0529,-4.0598,-4.0732,-4.0784,-4.0897,-4.0793,-4.0917,-4.1001,-4.0938,-4.1098,-4.1132,-4.1209,-4.1395,-4.1479,-4.1429,-4.177,-4.1664,-4.168,-4.169,-4.1795,-4.183,-4.1861,-4.1452,-4.145,-4.1448,0,0,-4.0708,-4.0758,-4.0899,-4.0953,-4.1033,-4.1047,-4.1081,-4.1151,-4.117,-4.1331,-4.1286,-4.1386,-4.1567,-4.1624,-4.1677,-4.193,-4.1891,-4.1962,-4.2094,-4.2202,-4.2231,-4.2256,-4.2347,-4.238,-4.1983,-4.1983,-4.1983,0,-4.0816,-4.0985,-4.0977,-4.1105,-4.1166,-4.1113,-4.1257,-4.131,-4.1418,-4.1461,-4.1404,-4.163,-4.1679,-4.1877,-4.1939,-4.1983,-4.2023,-4.1954,-4.2227,-4.2253,-4.2277,-4.2363,-4.2398,-4.1991,-4.199,-4.1989,-4.1989,0,-4.1114,-4.1232,-4.1337,-4.1443,-4.1515,-4.165,-4.1663,-4.1737,-4.1722,-4.1742,-4.1907,-4.1963,-4.2073,-4.2119,-4.2105,-4.2317,-4.2283,-4.2227,-4.2125,-4.232,-4.2402,-4.2435,-4.2003,-4.2,-4.1998,-4.1996,0,0,-4.1415,-4.1514,-4.1553,-4.1601,-4.1684,-4.1776,-4.1909,-4.2016,-4.2081,-4.2157,-4.2269,-4.2423,-4.2372,-4.2432,-4.2424,-4.2518,-4.2716,-4.2451,-4.2452,-4.2499,-4.2953,-4.2996,-4.3034,-4.269,-4.2696,-4.2701,-4.2947,0,-4.1652,-4.1885,-4.1881,-4.2098,-4.2207,-4.2159,-4.2275,-4.2339,-4.2362,-4.2458,-4.2482,-4.2592,-4.2515,-4.2552,-4.2643,-4.2673,-4.2807,-4.2655,-4.2795,-4.28,-4.2778,-4.3076,-4.3122,-4.3351,-4.2978,-4.2984,-4.2988,0,-4.196,-4.2046,-4.2273,-4.2341,-4.2387,-4.2492,-4.259,-4.2682,-4.2754,-4.2764,-4.2832,-4.2809,-4.2945,-4.2839,-4.3026,-4.2923,-4.298,-4.3003,-4.3012,-4.3026,-4.2906,-4.3099,-4.3423,-4.3458,-4.3037,-4.3033,-4.303,0,-4.2158,-4.2331,-4.2489,-4.2531,-4.2615,-4.2689,-4.2728,-4.2793,-4.2858,-4.2944,-4.2986,-4.3087,-4.3142,-4.3221,-4.3227,-4.3148,-4.3416,-4.331,-4.3429,-4.3429,-4.3488,-4.3485,-4.3827,-4.3524,-4.3523,-4.3522,-4.3522,0,-4.2423,-4.2564,-4.2579,-4.2677,-4.2834,-4.2828,-4.2984,-4.3015,-4.3074,-4.3177,-4.3141,-4.3239,-4.324,-4.334,-4.3345,-4.35,-4.3525,-4.3538,-4.3538,-4.3542,-4.354,-4.358,-4.3564,-4.3532,-4.353,-4.3528,-4.3526,0,-4.2672,-4.2687,-4.2857,-4.2922,-4.2941,-4.3054,-4.311,-4.3203,-4.3222,-4.3353,-4.3383,-4.3413,-4.3529,-4.3542,-4.3677,-4.368,-4.3868,-4.385,-4.3844,-4.3841,-4.396,-4.3949,-4.4341,-4.4392,-4.4054,-4.4057,-4.406,0,-4.284,-4.2948,-4.3024,-4.3091,-4.3133,-4.324,-4.3306,-4.3305,-4.3375,-4.3466,-4.3549,-4.3661,-4.375,-4.3938,-4.3972,-4.4075,-4.406,-4.419,-4.4075,-4.4077,-4.4064,-4.4058,-4.4069,-4.4213,-4.4217,-4.422,-4.4222,0,-4.3139,-4.3141,-4.3238,-4.3338,-4.3417,-4.3496,-4.3569,-4.3626,-4.3633,-4.3714,-4.3832,-4.3902,-4.404,-4.4152,-4.4254,-4.4293,-4.426,-4.4258,-4.4291,-4.4297,-4.4289,-4.4296,-4.3906,-4.4249,-4.4246,-4.4244,-4.4243,-4.4242,-4.3354,-4.3447,-4.3516,-4.3624,-4.3679,-4.3749,-4.384,-4.387,-4.3968,-4.408,-4.4073,-4.4204,-4.4273,-4.4406,-4.4453,-4.4556,-4.4512,-4.456,-4.4573,-4.4585,-4.4597,-4.4272,-4.4574,-4.4573,-4.4572,-4.4572,-4.4571,0,-4.3651,-4.3693,-4.3793,-4.3897,-4.3983,-4.3943,-4.4022,-4.4097,-4.4212,-4.4279,-4.4368,-4.4504,-4.4613,-4.4655,-4.4762,-4.4836,-4.4823,-4.4864,-4.4859,-4.4869,-4.4629,-4.459,-4.4872,-4.4872,-4.4872,-4.4872,-4.4872,-4.4872,-4.3816,-4.3973,-4.3983,-4.4167,-4.4207,-4.4335,-4.4383,-4.4448,-4.4502,-4.4655,-4.4745,-4.4772,-4.483,-4.494,-4.5038,-4.5048,-4.5089,-4.5137,-4.514,-4.4916,-4.4886,-4.4857,-4.482,-4.5146,-4.5146,-4.5371,-4.5374,-4.5375]}]]